| time (UTC) | temp F | wind direction | speed MPH | gust MPH | rain 1hr in | rain 24hr in | rain mn in | humidity % | barometer mb |
| 20260506211040 | 100 | 70 | 6.0 | 10.0 | 0.00 | 0.00 | 0.00 | 70 | 1007.3 |
| 20260506210540 | 100 | 136 | 3.0 | 10.0 | 0.00 | 0.00 | 0.00 | 70 | 1007.4 |
| 20260506210050 | 100 | 88 | 2.0 | 12.0 | 0.00 | 0.00 | 0.00 | 69 | 1007.5 |
| 20260506205539 | 99 | 98 | 4.0 | 12.0 | 0.00 | 0.00 | 0.00 | 68 | 1007.5 |
| 20260506205040 | 99 | 113 | 5.0 | 12.0 | 0.00 | 0.00 | 0.00 | 68 | 1007.5 |
| 20260506204546 | 99 | 118 | 4.0 | 11.0 | 0.00 | 0.00 | 0.00 | 68 | 1007.6 |
| 20260506204039 | 99 | 74 | 4.0 | 13.0 | 0.00 | 0.00 | 0.00 | 67 | 1007.7 |
| 20260506203540 | 99 | 101 | 7.0 | 13.0 | 0.00 | 0.00 | 0.00 | 68 | 1007.8 |
| 20260506203049 | 99 | 73 | 6.0 | 13.0 | 0.00 | 0.00 | 0.00 | 70 | 1007.8 |
| 20260506202543 | 99 | 98 | 5.0 | 11.0 | 0.00 | 0.00 | 0.00 | 70 | 1007.9 |
| 20260506202040 | 99 | 68 | 4.0 | 12.0 | 0.00 | 0.00 | 0.00 | 70 | 1008.0 |
| 20260506201546 | 99 | 215 | 4.0 | 13.0 | 0.00 | 0.00 | 0.00 | 69 | 1008.1 |
| 20260506201040 | 99 | 55 | 4.0 | 13.0 | 0.00 | 0.00 | 0.00 | 70 | 1008.1 |
| 20260506200538 | 99 | 56 | 6.0 | 13.0 | 0.00 | 0.00 | 0.00 | 70 | 1008.2 |
| 20260506200045 | 98 | 65 | 4.0 | 12.0 | 0.00 | 0.00 | 0.00 | 71 | 1008.3 |
| 20260506195540 | 99 | 41 | 7.0 | 12.0 | 0.00 | 0.00 | 0.00 | 70 | 1008.5 |
| 20260506195041 | 99 | 74 | 5.0 | 11.0 | 0.00 | 0.00 | 0.00 | 68 | 1008.5 |
| 20260506194554 | 98 | 101 | 6.0 | 11.0 | 0.00 | 0.00 | 0.00 | 69 | 1008.6 |
| 20260506194040 | 98 | 112 | 6.0 | 11.0 | 0.00 | 0.00 | 0.00 | 69 | 1008.6 |
| 20260506193538 | 98 | 123 | 4.0 | 11.0 | 0.00 | 0.00 | 0.00 | 69 | 1008.8 |
| 20260506193052 | 98 | 95 | 5.0 | 11.0 | 0.00 | 0.00 | 0.00 | 70 | 1008.9 |
| 20260506192539 | 98 | 156 | 5.0 | 11.0 | 0.00 | 0.00 | 0.00 | 71 | 1009.0 |
| 20260506192040 | 98 | 107 | 4.0 | 13.0 | 0.00 | 0.00 | 0.00 | 71 | 1009.2 |
| 20260506191547 | 98 | 130 | 5.0 | 13.0 | 0.00 | 0.00 | 0.00 | 71 | 1009.3 |
| 20260506191037 | 97 | 103 | 5.0 | 12.0 | 0.00 | 0.00 | 0.00 | 73 | 1009.4 |
| 20260506190542 | 97 | 101 | 5.0 | 12.0 | 0.00 | 0.00 | 0.00 | 73 | 1009.4 |
| 20260506190052 | 97 | 60 | 5.0 | 12.0 | 0.00 | 0.00 | 0.00 | 74 | 1009.5 |
| 20260506185540 | 98 | 81 | 5.0 | 10.0 | 0.00 | 0.00 | 0.00 | 73 | 1009.6 |
| 20260506185040 | 97 | 110 | 4.0 | 11.0 | 0.00 | 0.00 | 0.00 | 74 | 1009.7 |
| 20260506184550 | 97 | 110 | 5.0 | 11.0 | 0.00 | 0.00 | 0.00 | 74 | 1009.8 |
| 20260506184040 | 97 | 341 | 6.0 | 11.0 | 0.00 | 0.00 | 0.00 | 74 | 1009.8 |
| 20260506183543 | 97 | 82 | 4.0 | 11.0 | 0.00 | 0.00 | 0.00 | 74 | 1009.8 |
| 20260506183101 | 97 | 107 | 5.0 | 11.0 | 0.00 | 0.00 | 0.00 | 74 | 1010.0 |
| 20260506182537 | 97 | 94 | 5.0 | 11.0 | 0.00 | 0.00 | 0.00 | 74 | 1010.0 |
| 20260506182037 | 96 | 63 | 4.0 | 11.0 | 0.00 | 0.00 | 0.00 | 74 | 1010.0 |
| 20260506181608 | 96 | 49 | 3.0 | 10.0 | 0.00 | 0.00 | 0.00 | 74 | 1010.1 |
| 20260506181038 | 96 | 148 | 6.0 | 12.0 | 0.00 | 0.00 | 0.00 | 75 | 1010.1 |
| 20260506180541 | 95 | 310 | 5.0 | 12.0 | 0.00 | 0.00 | 0.00 | 75 | 1010.2 |
| 20260506180054 | 95 | 121 | 3.0 | 11.0 | 0.00 | 0.00 | 0.00 | 76 | 1010.2 |
| 20260506175540 | 96 | 95 | 6.0 | 10.0 | 0.00 | 0.00 | 0.00 | 75 | 1010.4 |
| 20260506175039 | 95 | 51 | 3.0 | 10.0 | 0.00 | 0.00 | 0.00 | 76 | 1010.5 |
| 20260506174548 | 95 | 89 | 3.0 | 9.0 | 0.00 | 0.00 | 0.00 | 76 | 1010.6 |
| 20260506174039 | 95 | 148 | 4.0 | 9.0 | 0.00 | 0.00 | 0.00 | 75 | 1010.7 |
| 20260506173542 | 94 | 112 | 2.0 | 10.0 | 0.00 | 0.00 | 0.00 | 76 | 1010.7 |
| 20260506173116 | 94 | 13 | 4.0 | 10.0 | 0.00 | 0.00 | 0.00 | 76 | 1010.8 |
| 20260506172540 | 94 | 55 | 3.0 | 10.0 | 0.00 | 0.00 | 0.00 | 77 | 1010.9 |
| 20260506172041 | 94 | 69 | 4.0 | 9.0 | 0.00 | 0.00 | 0.00 | 77 | 1010.9 |
| 20260506171553 | 94 | 169 | 2.0 | 9.0 | 0.00 | 0.00 | 0.00 | 77 | 1011.0 |
| 20260506171040 | 94 | 70 | 4.0 | 9.0 | 0.00 | 0.00 | 0.00 | 76 | 1011.1 |
| 20260506170539 | 94 | 0 | 4.0 | 10.0 | 0.00 | 0.00 | 0.00 | 75 | 1011.2 |
| 20260506170057 | 93 | 88 | 1.0 | 10.0 | 0.00 | 0.00 | 0.00 | 74 | 1011.2 |
| 20260506165537 | 93 | 105 | 5.0 | 10.0 | 0.00 | 0.00 | 0.00 | 76 | 1011.2 |
| 20260506165040 | 92 | 187 | 4.0 | 8.0 | 0.00 | 0.00 | 0.00 | 76 | 1011.3 |
| 20260506164550 | 93 | 0 | 3.0 | 8.0 | 0.00 | 0.00 | 0.00 | 75 | 1011.2 |
| 20260506164039 | 92 | 80 | 2.0 | 7.0 | 0.00 | 0.00 | 0.00 | 77 | 1011.2 |
| 20260506163539 | 92 | 74 | 3.0 | 7.0 | 0.00 | 0.00 | 0.00 | 75 | 1011.3 |
| 20260506163048 | 92 | 117 | 4.0 | 8.0 | 0.00 | 0.00 | 0.00 | 76 | 1011.3 |
| 20260506162537 | 92 | 107 | 2.0 | 8.0 | 0.00 | 0.00 | 0.00 | 77 | 1011.4 |
| 20260506162042 | 91 | 109 | 3.0 | 8.0 | 0.00 | 0.00 | 0.00 | 78 | 1011.3 |
| 20260506161546 | 91 | 85 | 3.0 | 7.0 | 0.00 | 0.00 | 0.00 | 78 | 1011.3 |
| 20260506161040 | 90 | 124 | 3.0 | 8.0 | 0.00 | 0.00 | 0.00 | 78 | 1011.4 |
| 20260506160536 | 90 | 160 | 4.0 | 8.0 | 0.00 | 0.00 | 0.00 | 78 | 1011.4 |
| 20260506155540 | 90 | 122 | 3.0 | 9.0 | 0.00 | 0.00 | 0.00 | 79 | 1011.5 |
| 20260506155040 | 89 | 90 | 5.0 | 9.0 | 0.00 | 0.00 | 0.00 | 79 | 1011.5 |
| 20260506154549 | 89 | 59 | 2.0 | 8.0 | 0.00 | 0.00 | 0.00 | 79 | 1011.5 |
| 20260506154043 | 89 | 105 | 4.0 | 8.0 | 0.00 | 0.00 | 0.00 | 80 | 1011.7 |
| 20260506153540 | 89 | 74 | 3.0 | 8.0 | 0.00 | 0.00 | 0.00 | 80 | 1011.7 |
| 20260506153053 | 89 | 59 | 3.0 | 7.0 | 0.00 | 0.00 | 0.00 | 81 | 1011.8 |
| 20260506152539 | 88 | 15 | 2.0 | 9.0 | 0.00 | 0.00 | 0.00 | 82 | 1011.7 |
| 20260506152039 | 88 | 115 | 2.0 | 9.0 | 0.00 | 0.00 | 0.00 | 82 | 1011.7 |
| 20260506151550 | 87 | 142 | 3.0 | 9.0 | 0.00 | 0.00 | 0.00 | 83 | 1011.7 |
| 20260506151040 | 87 | 121 | 4.0 | 9.0 | 0.00 | 0.00 | 0.00 | 83 | 1011.7 |
| 20260506150542 | 87 | 115 | 5.0 | 9.0 | 0.00 | 0.00 | 0.00 | 83 | 1011.7 |
| 20260506150051 | 87 | 86 | 4.0 | 8.0 | 0.00 | 0.00 | 0.00 | 83 | 1011.6 |
| 20260506145538 | 87 | 74 | 4.0 | 8.0 | 0.00 | 0.00 | 0.00 | 83 | 1011.5 |
| 20260506145038 | 87 | 111 | 3.0 | 9.0 | 0.00 | 0.00 | 0.00 | 83 | 1011.5 |
| 20260506144550 | 86 | 149 | 2.0 | 10.0 | 0.00 | 0.00 | 0.00 | 84 | 1011.6 |
| 20260506144040 | 85 | 135 | 4.0 | 10.0 | 0.00 | 0.00 | 0.00 | 84 | 1011.7 |
| 20260506143540 | 85 | 121 | 6.0 | 10.0 | 0.00 | 0.00 | 0.00 | 84 | 1011.8 |
| 20260506143048 | 85 | 82 | 4.0 | 9.0 | 0.00 | 0.00 | 0.00 | 85 | 1011.6 |
| 20260506142536 | 84 | 144 | 4.0 | 9.0 | 0.00 | 0.00 | 0.00 | 85 | 1011.7 |
| 20260506142042 | 84 | 63 | 5.0 | 9.0 | 0.00 | 0.00 | 0.00 | 85 | 1011.7 |
| 20260506141555 | 84 | 100 | 4.0 | 8.0 | 0.00 | 0.00 | 0.00 | 86 | 1011.7 |
| 20260506141042 | 84 | 117 | 4.0 | 8.0 | 0.00 | 0.00 | 0.00 | 86 | 1011.7 |
| 20260506140542 | 84 | 152 | 2.0 | 10.0 | 0.00 | 0.00 | 0.00 | 86 | 1011.7 |
| 20260506140051 | 83 | 84 | 4.0 | 10.0 | 0.00 | 0.00 | 0.00 | 87 | 1011.8 |
| 20260506135537 | 83 | 120 | 3.0 | 9.0 | 0.00 | 0.00 | 0.00 | 87 | 1011.7 |
| 20260506135037 | 83 | 101 | 3.0 | 12.0 | 0.00 | 0.00 | 0.00 | 87 | 1011.7 |
| 20260506134548 | 82 | 146 | 4.0 | 12.0 | 0.00 | 0.00 | 0.00 | 87 | 1011.6 |
| 20260506134037 | 82 | 142 | 6.0 | 12.0 | 0.00 | 0.00 | 0.00 | 87 | 1011.6 |
| 20260506133538 | 82 | 132 | 3.0 | 9.0 | 0.00 | 0.00 | 0.00 | 88 | 1011.6 |
| 20260506133048 | 82 | 95 | 4.0 | 10.0 | 0.00 | 0.00 | 0.00 | 88 | 1011.6 |
| 20260506132537 | 82 | 69 | 3.0 | 10.0 | 0.00 | 0.00 | 0.00 | 89 | 1011.6 |
| 20260506132042 | 82 | 61 | 3.0 | 9.0 | 0.00 | 0.00 | 0.00 | 89 | 1011.7 |
| 20260506131558 | 81 | 110 | 4.0 | 9.0 | 0.00 | 0.00 | 0.00 | 89 | 1011.6 |
| 20260506131041 | 81 | 84 | 3.0 | 9.0 | 0.00 | 0.00 | 0.00 | 90 | 1011.7 |
| 20260506130540 | 81 | 120 | 5.0 | 9.0 | 0.00 | 0.00 | 0.00 | 90 | 1011.5 |
| 20260506130053 | 80 | 94 | 3.0 | 8.0 | 0.00 | 0.00 | 0.00 | 90 | 1011.6 |
| 20260506125539 | 80 | 98 | 4.0 | 8.0 | 0.00 | 0.00 | 0.00 | 90 | 1011.6 |
| 20260506125039 | 80 | 132 | 3.0 | 8.0 | 0.00 | 0.00 | 0.00 | 90 | 1011.5 |
| 20260506124555 | 80 | 137 | 3.0 | 8.0 | 0.00 | 0.00 | 0.00 | 90 | 1011.5 |
| 20260506124039 | 80 | 114 | 1.0 | 7.0 | 0.00 | 0.00 | 0.00 | 90 | 1011.5 |
| 20260506123539 | 80 | 79 | 3.0 | 7.0 | 0.00 | 0.00 | 0.00 | 90 | 1011.4 |
| 20260506123052 | 80 | 138 | 2.0 | 7.0 | 0.00 | 0.00 | 0.00 | 90 | 1011.4 |
| 20260506122539 | 80 | 72 | 3.0 | 7.0 | 0.00 | 0.00 | 0.00 | 90 | 1011.4 |
| 20260506122037 | 80 | 104 | 2.0 | 6.0 | 0.00 | 0.00 | 0.00 | 91 | 1011.4 |
| 20260506121547 | 80 | 71 | 2.0 | 6.0 | 0.00 | 0.00 | 0.00 | 91 | 1011.3 |
| 20260506121039 | 80 | 119 | 2.0 | 4.0 | 0.00 | 0.00 | 0.00 | 91 | 1011.2 |
| 20260506120541 | 80 | 115 | 1.0 | 4.0 | 0.00 | 0.00 | 0.00 | 91 | 1011.2 |
| 20260506120053 | 80 | 134 | 2.0 | 6.0 | 0.00 | 0.00 | 0.00 | 90 | 1011.0 |
| 20260506115540 | 80 | 101 | 1.0 | 6.0 | 0.00 | 0.00 | 0.00 | 90 | 1011.1 |
| 20260506115036 | 80 | 76 | 2.0 | 6.0 | 0.00 | 0.00 | 0.00 | 90 | 1011.0 |
| 20260506114549 | 80 | 91 | 1.0 | 6.0 | 0.00 | 0.00 | 0.00 | 90 | 1011.1 |
| 20260506114040 | 80 | 151 | 2.0 | 6.0 | 0.00 | 0.00 | 0.00 | 90 | 1010.9 |
| 20260506113540 | 80 | 100 | 1.0 | 4.0 | 0.00 | 0.00 | 0.00 | 90 | 1011.0 |
| 20260506113050 | 80 | 110 | 1.0 | 6.0 | 0.00 | 0.00 | 0.00 | 90 | 1011.0 |
| 20260506112543 | 80 | 113 | 2.0 | 7.0 | 0.00 | 0.00 | 0.00 | 90 | 1010.9 |
| 20260506112039 | 80 | 111 | 2.0 | 7.0 | 0.00 | 0.00 | 0.00 | 90 | 1010.9 |
| 20260506111552 | 80 | 107 | 3.0 | 8.0 | 0.00 | 0.00 | 0.00 | 90 | 1010.9 |
| 20260506111039 | 80 | 98 | 3.0 | 8.0 | 0.00 | 0.00 | 0.00 | 89 | 1010.8 |
| 20260506110540 | 80 | 104 | 3.0 | 9.0 | 0.00 | 0.00 | 0.00 | 89 | 1010.8 |
| 20260506110050 | 81 | 96 | 2.0 | 9.0 | 0.00 | 0.00 | 0.00 | 89 | 1010.8 |
| 20260506105540 | 81 | 90 | 4.0 | 9.0 | 0.00 | 0.00 | 0.00 | 89 | 1010.7 |
| 20260506105042 | 81 | 117 | 3.0 | 8.0 | 0.00 | 0.00 | 0.00 | 89 | 1010.7 |
| 20260506104549 | 81 | 111 | 3.0 | 7.0 | 0.00 | 0.00 | 0.00 | 89 | 1010.6 |
| 20260506104040 | 81 | 123 | 3.0 | 7.0 | 0.00 | 0.00 | 0.00 | 89 | 1010.6 |
| 20260506103539 | 81 | 0 | 1.0 | 5.0 | 0.00 | 0.00 | 0.00 | 89 | 1010.5 |
| 20260506103050 | 81 | 96 | 1.0 | 4.0 | 0.00 | 0.00 | 0.00 | 88 | 1010.5 |
| 20260506102539 | 81 | 91 | 1.0 | 4.0 | 0.00 | 0.00 | 0.00 | 88 | 1010.5 |
| 20260506102039 | 81 | 194 | 0.0 | 7.0 | 0.00 | 0.00 | 0.00 | 88 | 1010.4 |
| 20260506101548 | 81 | 155 | 2.0 | 7.0 | 0.00 | 0.00 | 0.00 | 88 | 1010.5 |
| 20260506101039 | 81 | 89 | 3.0 | 8.0 | 0.00 | 0.00 | 0.00 | 88 | 1010.3 |
| 20260506100539 | 81 | 109 | 3.0 | 8.0 | 0.00 | 0.00 | 0.00 | 88 | 1010.3 |
| 20260506100046 | 81 | 76 | 3.0 | 8.0 | 0.00 | 0.00 | 0.00 | 88 | 1010.2 |
| 20260506095538 | 81 | 85 | 3.0 | 8.0 | 0.00 | 0.00 | 0.00 | 88 | 1010.1 |
| 20260506095042 | 82 | 86 | 2.0 | 7.0 | 0.00 | 0.00 | 0.00 | 89 | 1010.1 |
| 20260506094607 | 82 | 77 | 3.0 | 7.0 | 0.00 | 0.00 | 0.00 | 89 | 1010.1 |
| 20260506094041 | 82 | 133 | 2.0 | 7.0 | 0.00 | 0.00 | 0.00 | 88 | 1010.0 |
| 20260506093541 | 82 | 87 | 2.0 | 7.0 | 0.00 | 0.00 | 0.00 | 88 | 1010.0 |
| 20260506093048 | 82 | 0 | 2.0 | 6.0 | 0.00 | 0.00 | 0.00 | 89 | 1010.0 |
| 20260506092541 | 82 | 61 | 1.0 | 8.0 | 0.00 | 0.00 | 0.00 | 89 | 1010.0 |
| 20260506092041 | 82 | 0 | 1.0 | 8.0 | 0.00 | 0.00 | 0.00 | 89 | 1010.0 |
| 20260506091550 | 82 | 96 | 3.0 | 8.0 | 0.00 | 0.00 | 0.00 | 89 | 1009.8 |
| 20260506091041 | 82 | 84 | 2.0 | 5.0 | 0.00 | 0.00 | 0.00 | 90 | 1009.9 |
| 20260506090539 | 82 | 148 | 1.0 | 4.0 | 0.00 | 0.00 | 0.00 | 90 | 1009.8 |
| 20260506090048 | 82 | 101 | 0.0 | 6.0 | 0.00 | 0.00 | 0.00 | 91 | 1009.7 |
| 20260506085540 | 82 | 107 | 2.0 | 7.0 | 0.00 | 0.00 | 0.00 | 91 | 1009.7 |
| 20260506085043 | 82 | 91 | 4.0 | 7.0 | 0.00 | 0.00 | 0.00 | 91 | 1009.7 |
| 20260506084548 | 82 | 184 | 2.0 | 6.0 | 0.00 | 0.00 | 0.00 | 91 | 1009.8 |
| 20260506084042 | 82 | 132 | 3.0 | 9.0 | 0.00 | 0.00 | 0.00 | 92 | 1009.8 |
| 20260506083545 | 82 | 101 | 3.0 | 9.0 | 0.00 | 0.00 | 0.00 | 92 | 1009.8 |
| 20260506083046 | 83 | 119 | 2.0 | 4.0 | 0.00 | 0.00 | 0.00 | 92 | 1009.8 |
| 20260506082541 | 83 | 0 | 0.0 | 6.0 | 0.00 | 0.00 | 0.00 | 92 | 1009.8 |
| 20260506082041 | 83 | 136 | 2.0 | 6.0 | 0.00 | 0.00 | 0.00 | 92 | 1009.8 |
| 20260506081555 | 83 | 0 | 1.0 | 7.0 | 0.00 | 0.00 | 0.00 | 93 | 1009.8 |
| 20260506081039 | 83 | 126 | 0.0 | 8.0 | 0.00 | 0.00 | 0.00 | 93 | 1009.7 |
| 20260506080541 | 83 | 0 | 2.0 | 8.0 | 0.00 | 0.00 | 0.00 | 93 | 1009.7 |
| 20260506073053 | 83 | 115 | 4.0 | 9.0 | 0.00 | 0.00 | 0.00 | 93 | 1009.6 |
| 20260506072545 | 83 | 104 | 3.0 | 8.0 | 0.00 | 0.00 | 0.00 | 93 | 1009.7 |
| 20260506072043 | 83 | 88 | 3.0 | 8.0 | 0.00 | 0.00 | 0.00 | 93 | 1009.8 |
| 20260506071551 | 84 | 111 | 2.0 | 7.0 | 0.00 | 0.00 | 0.00 | 93 | 1009.7 |
| 20260506071042 | 84 | 93 | 2.0 | 10.0 | 0.00 | 0.00 | 0.00 | 93 | 1009.7 |
| 20260506070541 | 84 | 81 | 1.0 | 10.0 | 0.00 | 0.00 | 0.00 | 93 | 1009.8 |
| 20260506062041 | 84 | 96 | 5.0 | 11.0 | 0.00 | 0.00 | 0.00 | 91 | 1010.0 |
| 20260506061546 | 84 | 142 | 3.0 | 9.0 | 0.00 | 0.00 | 0.00 | 91 | 1010.1 |
| 20260506061039 | 84 | 87 | 3.0 | 10.0 | 0.00 | 0.00 | 0.00 | 91 | 1010.1 |
| 20260506060537 | 84 | 38 | 4.0 | 10.0 | 0.00 | 0.00 | 0.00 | 91 | 1010.1 |
| 20260506060104 | 84 | 38 | 5.0 | 10.0 | 0.00 | 0.00 | 0.00 | 91 | 1010.1 |
| 20260506051039 | 85 | 38 | 5.0 | 10.0 | 0.00 | 0.00 | 0.00 | 90 | 1010.3 |
| 20260506050540 | 85 | 78 | 5.0 | 10.0 | 0.00 | 0.00 | 0.00 | 90 | 1010.2 |
| 20260506045041 | 86 | 78 | 4.0 | 10.0 | 0.00 | 0.00 | 0.00 | 90 | 1010.0 |
| 20260506044554 | 86 | 84 | 3.0 | 10.0 | 0.00 | 0.00 | 0.00 | 90 | 1010.1 |
| 20260506044038 | 86 | 82 | 4.0 | 9.0 | 0.00 | 0.00 | 0.00 | 90 | 1010.1 |
| 20260506043542 | 86 | 59 | 5.0 | 11.0 | 0.00 | 0.00 | 0.00 | 90 | 1010.1 |
| 20260506043049 | 86 | 55 | 5.0 | 11.0 | 0.00 | 0.00 | 0.00 | 90 | 1010.1 |
| 20260506042540 | 86 | 68 | 4.0 | 9.0 | 0.00 | 0.00 | 0.00 | 90 | 1009.9 |
| 20260506042040 | 87 | 62 | 4.0 | 9.0 | 0.00 | 0.00 | 0.00 | 90 | 1009.9 |
| 20260506041549 | 87 | 21 | 4.0 | 9.0 | 0.00 | 0.00 | 0.00 | 89 | 1009.8 |
| 20260506041037 | 87 | 67 | 4.0 | 8.0 | 0.00 | 0.00 | 0.00 | 89 | 1009.8 |
| 20260506040539 | 87 | 92 | 4.0 | 9.0 | 0.00 | 0.00 | 0.00 | 89 | 1009.8 |
| 20260506040053 | 87 | 84 | 4.0 | 9.0 | 0.00 | 0.00 | 0.00 | 89 | 1009.8 |
| 20260506035541 | 87 | 84 | 5.0 | 10.0 | 0.00 | 0.00 | 0.00 | 89 | 1009.8 |
| 20260506035039 | 88 | 44 | 4.0 | 10.0 | 0.00 | 0.00 | 0.00 | 89 | 1009.8 |
| 20260506034544 | 88 | 87 | 3.0 | 9.0 | 0.00 | 0.00 | 0.00 | 88 | 1009.8 |
| 20260506034040 | 88 | 60 | 3.0 | 10.0 | 0.00 | 0.00 | 0.00 | 88 | 1009.7 |
| 20260506033539 | 88 | 86 | 5.0 | 10.0 | 0.00 | 0.00 | 0.00 | 88 | 1009.7 |
| 20260506033050 | 88 | 82 | 3.0 | 8.0 | 0.00 | 0.00 | 0.00 | 88 | 1009.7 |
| 20260506032544 | 88 | 71 | 3.0 | 8.0 | 0.00 | 0.00 | 0.00 | 88 | 1009.6 |
| 20260506032041 | 89 | 78 | 3.0 | 10.0 | 0.00 | 0.00 | 0.00 | 88 | 1009.5 |
| 20260506031551 | 89 | 57 | 5.0 | 10.0 | 0.00 | 0.00 | 0.00 | 88 | 1009.5 |
| 20260506031044 | 89 | 57 | 3.0 | 8.0 | 0.00 | 0.00 | 0.00 | 88 | 1009.5 |
| 20260506030543 | 89 | 61 | 3.0 | 8.0 | 0.00 | 0.00 | 0.00 | 88 | 1009.4 |
| 20260506030053 | 89 | 90 | 1.0 | 5.0 | 0.00 | 0.00 | 0.00 | 88 | 1009.4 |
| 20260506025539 | 89 | 119 | 3.0 | 5.0 | 0.00 | 0.00 | 0.00 | 88 | 1009.2 |
| 20260506025038 | 89 | 85 | 2.0 | 5.0 | 0.00 | 0.00 | 0.00 | 88 | 1009.3 |
| 20260506024557 | 89 | 65 | 2.0 | 7.0 | 0.00 | 0.00 | 0.00 | 88 | 1009.2 |
| 20260506024039 | 90 | 0 | 2.0 | 7.0 | 0.00 | 0.00 | 0.00 | 88 | 1009.2 |
| 20260506023540 | 90 | 63 | 3.0 | 7.0 | 0.00 | 0.00 | 0.00 | 87 | 1009.2 |
| 20260506023050 | 90 | 57 | 3.0 | 7.0 | 0.00 | 0.00 | 0.00 | 87 | 1009.0 |
| 20260506022540 | 90 | 76 | 3.0 | 9.0 | 0.00 | 0.00 | 0.00 | 87 | 1009.0 |
| 20260506022039 | 90 | 82 | 1.0 | 9.0 | 0.00 | 0.00 | 0.00 | 87 | 1009.0 |
| 20260506021552 | 90 | 84 | 4.0 | 9.0 | 0.00 | 0.00 | 0.00 | 86 | 1008.9 |
| 20260506021039 | 90 | 50 | 5.0 | 11.0 | 0.00 | 0.00 | 0.00 | 86 | 1008.8 |
| 20260506020539 | 91 | 71 | 4.0 | 11.0 | 0.00 | 0.00 | 0.00 | 86 | 1008.8 |
| 20260506020048 | 91 | 86 | 3.0 | 8.0 | 0.00 | 0.00 | 0.00 | 85 | 1008.6 |
| 20260506015541 | 91 | 126 | 3.0 | 8.0 | 0.00 | 0.00 | 0.00 | 85 | 1008.6 |
| 20260506015039 | 91 | 56 | 2.0 | 8.0 | 0.00 | 0.00 | 0.00 | 85 | 1008.5 |
| 20260506014549 | 92 | 63 | 3.0 | 10.0 | 0.00 | 0.00 | 0.00 | 84 | 1008.5 |
| 20260506014041 | 92 | 79 | 4.0 | 10.0 | 0.00 | 0.00 | 0.00 | 84 | 1008.5 |
| 20260506013539 | 92 | 57 | 3.0 | 7.0 | 0.00 | 0.00 | 0.00 | 84 | 1008.4 |
| 20260506013050 | 92 | 40 | 1.0 | 7.0 | 0.00 | 0.00 | 0.00 | 84 | 1008.4 |
| 20260506012540 | 92 | 39 | 0.0 | 4.0 | 0.00 | 0.00 | 0.00 | 84 | 1008.3 |
| 20260506012044 | 92 | 14 | 1.0 | 5.0 | 0.00 | 0.00 | 0.00 | 84 | 1008.2 |
| 20260506011546 | 93 | 61 | 0.0 | 6.0 | 0.00 | 0.00 | 0.00 | 84 | 1008.1 |
| 20260506011039 | 93 | 71 | 1.0 | 6.0 | 0.00 | 0.00 | 0.00 | 83 | 1008.2 |
| 20260506010541 | 94 | 0 | 1.0 | 6.0 | 0.00 | 0.00 | 0.00 | 82 | 1008.1 |
| 20260506010048 | 94 | 111 | 2.0 | 6.0 | 0.00 | 0.00 | 0.00 | 81 | 1008.0 |
| 20260506005541 | 95 | 0 | 1.0 | 8.0 | 0.00 | 0.00 | 0.00 | 79 | 1008.0 |
| 20260506005039 | 95 | 0 | 3.0 | 8.0 | 0.00 | 0.00 | 0.00 | 76 | 1008.0 |
| 20260506004546 | 95 | 43 | 4.0 | 8.0 | 0.00 | 0.00 | 0.00 | 75 | 1007.9 |
| 20260506004040 | 95 | 49 | 3.0 | 7.0 | 0.00 | 0.00 | 0.00 | 75 | 1007.9 |
| 20260506003539 | 95 | 65 | 3.0 | 7.0 | 0.00 | 0.00 | 0.00 | 75 | 1007.8 |
| 20260506003049 | 95 | 65 | 3.0 | 7.0 | 0.00 | 0.00 | 0.00 | 75 | 1007.9 |
| 20260506002541 | 95 | 87 | 3.0 | 7.0 | 0.00 | 0.00 | 0.00 | 75 | 1008.0 |
| 20260506002037 | 95 | 86 | 2.0 | 8.0 | 0.00 | 0.00 | 0.00 | 75 | 1007.9 |
| 20260506001552 | 96 | 36 | 3.0 | 8.0 | 0.00 | 0.00 | 0.00 | 75 | 1007.9 |
| 20260506001039 | 96 | 105 | 3.0 | 9.0 | 0.00 | 0.00 | 0.00 | 75 | 1007.9 |
| 20260506000537 | 96 | 45 | 4.0 | 9.0 | 0.00 | 0.00 | 0.00 | 74 | 1007.9 |
| 20260506000052 | 96 | 79 | 4.0 | 8.0 | 0.00 | 0.00 | 0.00 | 74 | 1007.9 |
| 20260505235536 | 96 | 42 | 3.0 | 9.0 | 0.00 | 0.00 | 0.00 | 73 | 1007.8 |
| 20260505235041 | 96 | 72 | 3.0 | 9.0 | 0.00 | 0.00 | 0.00 | 73 | 1007.8 |
| 20260505234550 | 96 | 92 | 5.0 | 9.0 | 0.00 | 0.00 | 0.00 | 73 | 1007.8 |
| 20260505234040 | 96 | 92 | 4.0 | 9.0 | 0.00 | 0.00 | 0.00 | 73 | 1007.8 |
| 20260505233536 | 97 | 90 | 5.0 | 9.0 | 0.00 | 0.00 | 0.00 | 72 | 1007.7 |
| 20260505233050 | 97 | 71 | 3.0 | 11.0 | 0.00 | 0.00 | 0.00 | 72 | 1007.7 |
| 20260505232542 | 97 | 101 | 6.0 | 11.0 | 0.00 | 0.00 | 0.00 | 71 | 1007.7 |
| 20260505232039 | 97 | 71 | 4.0 | 11.0 | 0.00 | 0.00 | 0.00 | 70 | 1007.9 |
| 20260505231600 | 97 | 107 | 5.0 | 11.0 | 0.00 | 0.00 | 0.00 | 70 | 1007.8 |
| 20260505231038 | 97 | 99 | 4.0 | 11.0 | 0.00 | 0.00 | 0.00 | 70 | 1007.9 |
| 20260505230538 | 97 | 58 | 6.0 | 11.0 | 0.00 | 0.00 | 0.00 | 70 | 1007.8 |
| 20260505230056 | 98 | 89 | 7.0 | 11.0 | 0.00 | 0.00 | 0.00 | 69 | 1007.8 |
| 20260505225536 | 98 | 98 | 4.0 | 11.0 | 0.00 | 0.00 | 0.00 | 70 | 1007.8 |
| 20260505225041 | 98 | 59 | 6.0 | 11.0 | 0.00 | 0.00 | 0.00 | 70 | 1007.9 |
| 20260505224548 | 98 | 56 | 6.0 | 10.0 | 0.00 | 0.00 | 0.00 | 71 | 1007.8 |
| 20260505224039 | 98 | 104 | 4.0 | 10.0 | 0.00 | 0.00 | 0.00 | 72 | 1007.9 |
| 20260505223538 | 98 | 90 | 4.0 | 9.0 | 0.00 | 0.00 | 0.00 | 72 | 1008.0 |
| 20260505223050 | 98 | 44 | 3.0 | 10.0 | 0.00 | 0.00 | 0.00 | 72 | 1008.0 |
| 20260505222539 | 98 | 41 | 4.0 | 10.0 | 0.00 | 0.00 | 0.00 | 72 | 1008.0 |
| 20260505222039 | 98 | 94 | 5.0 | 10.0 | 0.00 | 0.00 | 0.00 | 71 | 1008.0 |
| 20260505221553 | 98 | 63 | 3.0 | 10.0 | 0.00 | 0.00 | 0.00 | 71 | 1008.1 |
| 20260505221041 | 98 | 55 | 5.0 | 10.0 | 0.00 | 0.00 | 0.00 | 71 | 1008.1 |
| 20260505220539 | 98 | 86 | 2.0 | 9.0 | 0.00 | 0.00 | 0.00 | 70 | 1008.1 |
| 20260505220051 | 98 | 62 | 5.0 | 9.0 | 0.00 | 0.00 | 0.00 | 70 | 1008.2 |
| 20260505215539 | 98 | 74 | 4.0 | 10.0 | 0.00 | 0.00 | 0.00 | 70 | 1008.1 |
| 20260505215040 | 98 | 63 | 5.0 | 10.0 | 0.00 | 0.00 | 0.00 | 70 | 1008.2 |
| 20260505214550 | 98 | 98 | 5.0 | 10.0 | 0.00 | 0.00 | 0.00 | 70 | 1008.3 |
| 20260505214039 | 98 | 40 | 6.0 | 10.0 | 0.00 | 0.00 | 0.00 | 71 | 1008.3 |
| 20260505213535 | 98 | 121 | 4.0 | 10.0 | 0.00 | 0.00 | 0.00 | 71 | 1008.3 |
| 20260505213056 | 98 | 0 | 6.0 | 10.0 | 0.00 | 0.00 | 0.00 | 71 | 1008.3 |
| 20260505212540 | 98 | 53 | 4.0 | 10.0 | 0.00 | 0.00 | 0.00 | 71 | 1008.4 |
| 20260505212037 | 98 | 44 | 3.0 | 10.0 | 0.00 | 0.00 | 0.00 | 71 | 1008.5 |
| 20260505211548 | 98 | 116 | 3.0 | 10.0 | 0.00 | 0.00 | 0.00 | 71 | 1008.5 |